Vertical_Velocity
-0 -2 -1 0 -2 -1 1 -1 -0 -1 -2 -3 -1 -1 0 -1 -0 -1 2 2 3 4 2 7 1 0 1 -0 2 8 5 12 8 3 9 7 5 1 2 6 9 3 4
-1 -2 -1 0 -1 -0 1 0 -1 0 -2 -1 -3 -2 -3 -2 1 -1 0 1 -2 -2 1 8 6 2 -6 -4 1 -3 3 1 1 8 2 3 5 2 8 3 4 3 -1
-2 -1 1 -1 0 1 0 -1 -2 0 -1 -2 -2 -1 -1 -3 -2 -0 -1 -3 3 3 1 0 1 7 3 -0 -4 3 3 7 0 3 4 -0 4 11 4 1 1 2 6
-1 -1 -0 0 -0 -0 -0 -1 -1 0 -1 -3 -1 -1 -1 -1 -1 -2 -1 -1 -2 3 3 -0 1 1 5 3 -0 -1 -2 0 -1 -1 1 -1 0 -2 7 4 3 7 -1
-0 0 -1 2 0 -0 0 0 -1 -0 2 -1 -1 -1 -3 -2 -1 0 -2 0 -4 1 3 7 3 5 -0 1 -1 0 -1 -2 2 -0 -0 -1 0 1 3 2 3 4 4
0 -2 -0 1 1 -0 -1 0 3 0 -1 -1 -0 -1 -1 -2 -2 0 -1 -1 -1 -0 1 -0 2 2 0 3 3 1 1 1 1 2 0 2 0 2 4 2 -0 3 5
2 -3 -0 -0 -0 -2 -2 0 1 0 1 1 -1 1 -1 -2 -2 -0 -2 -2 -2 -0 -1 -1 -0 0 1 0 -0 2 2 0 -1 4 0 1 4 6 2 3 3 5 -1
1 -2 -2 -0 -2 -3 1 -0 -1 -0 0 1 0 -2 -1 -1 -1 -0 -2 -2 -3 2 0 -1 -0 0 -0 1 1 1 0 1 1 3 -1 7 11 7 3 8 3 -2 -4
-0 -2 -0 -1 -1 -2 0 -0 -1 -0 -1 -1 -1 -1 0 -0 -2 -0 -3 -2 -2 -1 1 -0 -3 -1 -2 -1 -2 -1 1 3 -2 7 6 10 6 5 1 -0 -7 -1 2
-3 -2 -2 -2 -0 -2 -2 -2 -2 -0 -1 -1 -2 -3 25 6 -1 -3 -1 -0 1 0 2 -1 -1 -1 -1 0 3 3 1 2 -1 3 5 1 -0 -3 -6 -2 1 1 -2
-2 -1 -3 -2 -2 -0 -0 -0 -2 -0 -2 -2 -3 -2 -1 2 -0 0 -2 -1 -1 1 0 -1 0 -1 -1 -2 -1 -0 1 4 4 5 -1 -5 -2 -1 -0 -0 1 1 1
-1 -1 -3 -2 -2 -2 0 0 -1 -3 -0 -1 -2 -2 1 -2 -1 -3 -1 1 1 -1 0 3 4 -1 -1 -1 -2 -1 -2 -3 -1 -1 0 1 -1 -2 -3 -3 -2 -0 -1
-1 -1 -1 -3 -2 -2 -1 1 0 -2 -2 -1 -1 -1 -2 -1 -2 -4 -2 -4 -3 -7 -3 -7 -8 -8 -6 -1 2 1 1 1 -2 -2 -1 -2 0 -1 -1 -2 -3 -4 -4
-1 -1 -0 -1 -2 -1 -2 -2 0 -0 -2 -2 -1 -1 -1 -2 -2 -2 -2 -1 -1 1 -0 -0 -0 -2 -0 -1 -2 -2 -2 -1 -1 -0 -1 -1 -1 -2 -2 -1 -1 -1 -1
-1 -1 -2 -1 -1 -2 -2 -3 -2 -1 2 1 -2 -1 -0 -0 -1 -1 -1 -1 -1 -1 -1 -1 -1 -2 -2 -2 -2 -1 -1 -1 -1 -2 -2 -1 -1 -1 -1 -1 -0 -0 -1
-1 -1 -1 -2 -1 -0 -1 -3 -5 -3 -1 -1 0 1 -2 -2 -1 -2 -1 -0 -0 -1 -1 -0 -0 -0 -0 -0 1 2 2 2 1 1 1 1 0 -1 -2 -3 -4 -3 -1
-0 0 -1 -1 -1 -0 -0 -1 -1 -1 -2 -2 -0 -0 -1 -0 -1 -1 -1 -2 -2 -1 -1 -1 -2 -2 -2 -1 -1 -0 -1 -1 -0 0 0 -0 -0 -0 1 1 1 1 1
1 0 -2 -2 -1 -1 -1 1 2 -1 -1 -0 -1 -1 -1 -1 -1 -0 -0 1 1 -1 -1 -1 -1 -1 -1 -1 -1 -1 -1 0 1 1 -0 -1 -1 -0 -1 -1 -1 -1 1
1 0 -1 -1 -2 -3 0 -0 0 2 -0 -3 -1 2 0 -0 -1 -1 -1 -1 0 0 -0 -0 -1 -1 -2 -1 -1 -1 -2 -2 -1 -1 -1 -1 -1 -1 -0 -0 1 -0 -1
-1 1 -1 -2 -1 -0 -2 -2 -0 1 2 2 -1 -4 -3 -2 -1 -1 -1 -1 -0 -1 -2 -3 -3 -3 -2 -1 -1 -0 1 1 -1 -1 -1 -0 -1 -2 -2 -1 -1 -1 -1
2 -1 0 0 -1 1 0 -0 -2 -1 -0 2 1 1 -1 -4 -5 -3 -1 -1 -3 -1 -0 -1 -2 -1 -2 -3 -3 -4 -3 -2 -2 -2 -2 -0 -1 -1 -0 1 -3 -2 1
1 3 1 2 1 1 -0 -1 -1 -1 -1 1 0 2 2 1 2 2 -1 -2 -4 -5 -3 -1 2 4 4 3 1 1 1 2 2 2 2 1 1 -1 -4 -5 -1 -0 -2
-1 0 0 1 2 1 0 0 0 -2 -1 -0 -3 -1 3 1 0 -2 -0 -3 -4 -1 0 -2 -4 -4 -3 -3 1 3 3 3 2 0 -2 -4 0 4 0 2 -0 -1 -2
-3 -2 0 -2 -1 0 -0 2 3 1 0 -2 -0 -0 -1 1 3 2 -1 -2 0 -2 -0 0 -1 -0 0 -1 -2 -3 -4 -3 -4 -3 -2 -2 -1 3 -0 -2 -5 3 2
-2 -1 -0 -0 -1 0 -0 -0 -1 0 -0 -2 -1 -0 -0 1 -3 4 2 2 -1 -2 1 -2 1 1 -1 -1 0 1 0 1 -2 -2 -0 -7 -4 -3 -4 -1 -2 -0 2
-4 1 1 -4 -0 2 -1 -1 0 4 0 3 -2 -4 0 -1 -0 -3 -2 -0 3 2 -2 -0 1 1 2 2 0 -0 0 1 -1 0 -1 1 1 1 0 4 8 -1 -2
Height
5725 5723 5720 5716 5713 5710 5708 5706 5703 5702 5701 5700 5701 5701 5701 5701 5701 5703 5704 5705 5704 5705 5705 5707 5708 5711 5714 5718 5720 5723 5729 5732 5736 5738 5742 5746 5753 5758 5765 5770 5777 5782 5785
5723 5721 5718 5715 5712 5709 5708 5707 5705 5704 5702 5702 5703 5704 5704 5704 5704 5706 5707 5708 5708 5707 5709 5711 5712 5714 5718 5721 5724 5727 5731 5735 5738 5741 5744 5749 5755 5760 5767 5773 5778 5781 5784
5722 5720 5716 5714 5712 5710 5708 5707 5707 5705 5704 5705 5705 5706 5707 5707 5707 5708 5710 5712 5711 5712 5713 5715 5717 5718 5719 5722 5727 5730 5734 5738 5741 5745 5749 5753 5758 5764 5769 5774 5777 5781 5786
5722 5719 5716 5714 5712 5711 5709 5708 5708 5707 5706 5706 5707 5708 5708 5708 5709 5711 5713 5715 5716 5717 5717 5719 5720 5722 5723 5724 5729 5734 5737 5740 5744 5748 5752 5756 5762 5766 5770 5775 5779 5783 5785
5721 5719 5716 5714 5714 5713 5711 5709 5709 5709 5708 5707 5707 5709 5709 5710 5710 5712 5715 5717 5720 5721 5721 5721 5722 5725 5727 5729 5733 5736 5740 5743 5747 5749 5753 5757 5763 5768 5772 5776 5780 5783 5785
5721 5719 5717 5715 5714 5714 5712 5711 5711 5711 5710 5709 5709 5709 5710 5711 5713 5715 5717 5719 5722 5724 5725 5725 5727 5729 5731 5733 5736 5738 5741 5744 5748 5752 5756 5760 5765 5770 5774 5777 5780 5783 5786
5722 5720 5718 5716 5715 5715 5714 5713 5712 5712 5711 5710 5710 5710 5711 5713 5715 5717 5719 5722 5725 5727 5729 5730 5731 5732 5734 5737 5740 5742 5743 5746 5749 5753 5758 5763 5767 5771 5775 5778 5780 5782 5783
5724 5722 5720 5718 5717 5716 5716 5715 5714 5713 5711 5710 5710 5711 5713 5714 5716 5718 5721 5724 5728 5730 5733 5734 5736 5737 5738 5740 5742 5744 5745 5748 5751 5755 5759 5764 5769 5772 5775 5778 5780 5780 5784
5725 5724 5722 5721 5720 5720 5719 5717 5715 5715 5714 5712 5712 5712 5713 5715 5717 5720 5724 5727 5729 5732 5734 5737 5738 5740 5743 5744 5746 5747 5749 5752 5755 5758 5763 5767 5770 5772 5774 5777 5779 5783 5785
5727 5726 5725 5725 5723 5723 5722 5721 5719 5718 5718 5717 5716 5715 5714 5713 5717 5720 5724 5727 5731 5734 5736 5738 5740 5742 5744 5746 5748 5749 5752 5755 5759 5762 5765 5768 5770 5773 5776 5780 5781 5782 5783
5728 5728 5727 5727 5727 5726 5726 5725 5724 5723 5722 5721 5720 5720 5718 5717 5717 5721 5726 5730 5732 5735 5737 5740 5742 5743 5746 5749 5752 5755 5757 5759 5762 5764 5768 5771 5774 5775 5777 5779 5779 5780 5781
5729 5729 5729 5729 5730 5730 5729 5729 5729 5729 5728 5727 5726 5726 5725 5724 5723 5725 5728 5731 5734 5736 5739 5741 5744 5747 5749 5752 5756 5759 5762 5763 5765 5768 5771 5773 5774 5775 5776 5777 5777 5778 5777
5729 5730 5731 5732 5732 5732 5732 5732 5733 5733 5733 5733 5733 5733 5733 5733 5732 5732 5734 5737 5739 5741 5742 5745 5748 5751 5754 5757 5759 5762 5764 5765 5767 5769 5771 5773 5774 5774 5775 5776 5776 5775 5775
5728 5730 5732 5732 5734 5734 5734 5735 5735 5736 5736 5737 5737 5738 5739 5739 5740 5742 5743 5745 5746 5748 5750 5752 5755 5757 5759 5761 5763 5764 5766 5767 5768 5770 5771 5772 5772 5773 5772 5772 5771 5770 5768
5728 5730 5731 5733 5735 5736 5737 5738 5739 5740 5741 5741 5742 5743 5744 5745 5746 5747 5748 5749 5751 5753 5754 5756 5758 5760 5762 5763 5764 5766 5767 5768 5769 5770 5770 5770 5770 5769 5769 5768 5767 5766 5764
5728 5729 5731 5732 5734 5737 5739 5740 5742 5743 5744 5745 5747 5747 5748 5749 5751 5752 5753 5753 5754 5755 5757 5758 5760 5761 5762 5763 5764 5766 5767 5767 5768 5768 5768 5768 5768 5768 5767 5766 5765 5763 5761
5728 5729 5731 5733 5734 5736 5738 5741 5743 5744 5746 5747 5749 5750 5751 5752 5753 5754 5754 5755 5756 5757 5758 5759 5760 5761 5762 5763 5764 5765 5766 5767 5767 5767 5767 5767 5766 5765 5763 5762 5760 5758 5755
5726 5728 5730 5731 5733 5735 5737 5740 5742 5744 5746 5748 5749 5751 5752 5753 5753 5754 5755 5756 5756 5756 5757 5758 5759 5759 5760 5761 5762 5763 5764 5765 5764 5764 5763 5762 5761 5760 5759 5757 5754 5751 5748
5724 5726 5727 5730 5732 5734 5736 5738 5740 5743 5744 5746 5748 5750 5751 5752 5752 5753 5754 5754 5755 5755 5756 5756 5757 5758 5758 5758 5759 5760 5761 5760 5760 5759 5758 5757 5756 5754 5752 5749 5746 5742 5739
5721 5723 5725 5726 5729 5731 5734 5735 5737 5739 5742 5744 5745 5747 5748 5750 5751 5751 5751 5751 5752 5753 5754 5755 5756 5756 5756 5756 5757 5757 5757 5756 5755 5754 5752 5751 5749 5746 5745 5742 5739 5735 5732
5716 5719 5721 5723 5725 5727 5729 5731 5733 5734 5737 5739 5741 5743 5745 5746 5746 5747 5748 5749 5750 5752 5754 5755 5755 5755 5755 5755 5754 5754 5753 5752 5750 5748 5746 5744 5742 5740 5736 5734 5731 5728 5724
5709 5713 5715 5718 5721 5723 5725 5726 5728 5730 5732 5733 5735 5737 5739 5740 5741 5742 5743 5744 5745 5746 5748 5749 5750 5751 5751 5751 5750 5750 5749 5747 5744 5742 5739 5737 5736 5733 5729 5726 5723 5719 5714
5702 5705 5708 5711 5715 5717 5719 5721 5723 5725 5727 5728 5729 5730 5732 5734 5735 5737 5738 5739 5740 5741 5742 5743 5743 5744 5744 5744 5743 5743 5741 5739 5736 5734 5732 5732 5729 5726 5722 5719 5714 5710 5706
5694 5697 5700 5703 5706 5709 5712 5715 5717 5719 5720 5721 5722 5724 5726 5726 5728 5729 5731 5732 5734 5735 5735 5735 5735 5736 5736 5736 5736 5735 5734 5732 5730 5728 5726 5722 5720 5717 5713 5709 5705 5702 5697
5686 5689 5692 5695 5699 5702 5704 5706 5709 5711 5713 5714 5715 5716 5717 5719 5719 5720 5722 5724 5724 5726 5727 5728 5728 5727 5727 5727 5727 5726 5725 5724 5721 5719 5715 5713 5712 5708 5705 5700 5695 5691 5686
5677 5681 5683 5686 5689 5692 5694 5697 5699 5702 5704 5706 5706 5707 5708 5708 5710 5712 5712 5713 5715 5717 5718 5718 5719 5718 5718 5717 5717 5716 5714 5713 5711 5709 5708 5705 5700 5697 5693 5688 5684 5680 5675